date,time,SUV Intensity [MED/Hr],UV Index,Daily total [MED],Since Last [MED]
10/09/2022,00:00:27,-0.000,0.0,0.0,0.0
10/09/2022,00:01:28,0.000,0.0,0.0,0.0
10/09/2022,00:02:28,0.001,0.0,0.0,0.0
10/09/2022,00:03:27,0.000,0.0,0.0,0.0
10/09/2022,00:04:40,-0.001,0.0,0.0,0.0
10/09/2022,00:06:28,0.000,0.0,0.0,0.0
10/09/2022,00:07:29,0.000,0.0,0.0,0.0
10/09/2022,00:08:27,0.000,0.0,0.0,0.0
10/09/2022,00:09:27,0.000,0.0,0.0,0.0
10/09/2022,00:10:28,0.000,0.0,0.0,0.0
10/09/2022,00:11:27,-0.001,0.0,0.0,0.0
10/09/2022,00:12:28,0.001,0.0,0.0,0.0
10/09/2022,00:13:36,0.000,0.0,0.0,0.0
10/09/2022,00:14:27,-0.001,0.0,0.0,0.0
10/09/2022,00:15:27,-0.000,0.0,0.0,0.0
10/09/2022,00:16:36,0.001,0.0,0.0,0.0
10/09/2022,00:17:29,0.000,0.0,0.0,0.0
10/09/2022,00:18:28,0.000,0.0,0.0,0.0
10/09/2022,00:19:36,0.000,0.0,0.0,0.0
10/09/2022,00:20:28,0.001,0.0,0.0,0.0
10/09/2022,00:21:28,0.000,0.0,0.0,0.0
10/09/2022,00:22:36,0.001,0.0,0.0,0.0
10/09/2022,00:23:27,0.001,0.0,0.0,0.0
10/09/2022,00:24:27,-0.000,0.0,0.0,0.0
10/09/2022,00:25:27,0.000,0.0,0.0,0.0
10/09/2022,00:26:28,-0.000,0.0,0.0,0.0
10/09/2022,00:27:27,0.000,0.0,0.0,0.0
10/09/2022,00:28:27,0.000,0.0,0.0,0.0
10/09/2022,00:29:28,0.000,0.0,0.0,0.0
10/09/2022,00:30:28,-0.000,0.0,0.0,0.0
10/09/2022,00:31:28,0.000,0.0,0.0,0.0
10/09/2022,00:32:27,0.000,0.0,0.0,0.0
10/09/2022,00:33:28,-0.000,0.0,0.0,0.0
10/09/2022,00:34:36,0.001,0.0,0.0,0.0
10/09/2022,00:35:27,0.001,0.0,0.0,0.0
10/09/2022,00:36:35,0.001,0.0,0.0,0.0
10/09/2022,00:37:36,0.001,0.0,0.0,0.0
10/09/2022,00:38:29,-0.001,0.0,0.0,0.0
10/09/2022,00:39:28,0.000,0.0,0.0,0.0
10/09/2022,00:40:28,0.000,0.0,0.0,0.0
10/09/2022,00:41:53,-0.000,0.0,0.0,0.0
10/09/2022,00:43:28,0.000,0.0,0.0,0.0
10/09/2022,00:44:36,-0.000,0.0,0.0,0.0
10/09/2022,00:45:28,0.001,0.0,0.0,0.0
10/09/2022,00:46:28,0.000,0.0,0.0,0.0
10/09/2022,00:47:28,0.000,0.0,0.0,0.0
10/09/2022,00:48:28,0.000,0.0,0.0,0.0
10/09/2022,00:49:28,0.001,0.0,0.0,0.0
10/09/2022,00:50:36,-0.001,0.0,0.0,0.0
10/09/2022,00:51:27,0.000,0.0,0.0,0.0
10/09/2022,00:52:35,-0.001,0.0,0.0,0.0
10/09/2022,00:53:27,0.001,0.0,0.0,0.0
10/09/2022,00:54:27,0.001,0.0,0.0,0.0
10/09/2022,00:55:28,0.001,0.0,0.0,0.0
10/09/2022,00:56:28,0.001,0.0,0.0,0.0
10/09/2022,00:57:28,0.001,0.0,0.0,0.0
10/09/2022,00:58:27,-0.000,0.0,0.0,0.0
10/09/2022,00:59:27,0.000,0.0,0.0,0.0
10/09/2022,01:00:27,0.001,0.0,0.0,0.0
10/09/2022,01:01:27,-0.001,0.0,0.0,0.0
10/09/2022,01:02:29,0.000,0.0,0.0,0.0
10/09/2022,01:03:28,0.000,0.0,0.0,0.0
10/09/2022,01:04:28,0.000,0.0,0.0,0.0
10/09/2022,01:05:36,0.001,0.0,0.0,0.0
10/09/2022,01:06:27,0.000,0.0,0.0,0.0
10/09/2022,01:07:28,0.000,0.0,0.0,0.0
10/09/2022,01:08:28,0.001,0.0,0.0,0.0
10/09/2022,01:09:27,-0.000,0.0,0.0,0.0
10/09/2022,01:10:27,0.000,0.0,0.0,0.0
10/09/2022,01:11:28,0.001,0.0,0.0,0.0
10/09/2022,01:12:27,-0.001,0.0,0.0,0.0
10/09/2022,01:13:28,-0.001,0.0,0.0,0.0
10/09/2022,01:14:27,0.000,0.0,0.0,0.0
10/09/2022,01:15:28,-0.000,0.0,0.0,0.0
10/09/2022,01:16:28,-0.000,0.0,0.0,0.0
10/09/2022,01:17:36,0.000,0.0,0.0,0.0
10/09/2022,01:18:28,0.001,0.0,0.0,0.0
10/09/2022,01:19:27,0.000,0.0,0.0,0.0
10/09/2022,01:20:28,0.000,0.0,0.0,0.0
10/09/2022,01:21:28,0.000,0.0,0.0,0.0
10/09/2022,01:22:28,0.001,0.0,0.0,0.0
10/09/2022,01:23:36,0.000,0.0,0.0,0.0
10/09/2022,01:24:27,0.000,0.0,0.0,0.0
10/09/2022,01:25:27,0.000,0.0,0.0,0.0
10/09/2022,01:26:28,-0.000,0.0,0.0,0.0
10/09/2022,01:27:28,0.001,0.0,0.0,0.0
10/09/2022,01:28:27,-0.000,0.0,0.0,0.0
10/09/2022,01:29:28,0.000,0.0,0.0,0.0
10/09/2022,01:30:27,0.001,0.0,0.0,0.0
10/09/2022,01:31:28,0.000,0.0,0.0,0.0
10/09/2022,01:32:27,0.000,0.0,0.0,0.0
10/09/2022,01:33:27,0.001,0.0,0.0,0.0
10/09/2022,01:34:28,0.001,0.0,0.0,0.0
10/09/2022,01:35:27,-0.001,0.0,0.0,0.0
10/09/2022,01:36:28,0.000,0.0,0.0,0.0
10/09/2022,01:37:28,0.000,0.0,0.0,0.0
10/09/2022,01:38:36,0.001,0.0,0.0,0.0
10/09/2022,01:39:27,0.000,0.0,0.0,0.0
10/09/2022,01:40:27,0.000,0.0,0.0,0.0
10/09/2022,01:41:36,0.000,0.0,0.0,0.0
10/09/2022,01:42:27,0.001,0.0,0.0,0.0
10/09/2022,01:43:27,0.000,0.0,0.0,0.0
10/09/2022,01:44:28,-0.000,0.0,0.0,0.0
10/09/2022,01:45:28,0.001,0.0,0.0,0.0
10/09/2022,01:46:28,0.000,0.0,0.0,0.0
10/09/2022,01:47:28,0.000,0.0,0.0,0.0
10/09/2022,01:48:36,0.000,0.0,0.0,0.0
10/09/2022,01:49:28,-0.001,0.0,0.0,0.0
10/09/2022,01:50:28,0.001,0.0,0.0,0.0
10/09/2022,01:51:27,0.000,0.0,0.0,0.0
10/09/2022,01:52:27,0.000,0.0,0.0,0.0
10/09/2022,01:53:27,0.001,0.0,0.0,0.0
10/09/2022,01:54:28,0.000,0.0,0.0,0.0
10/09/2022,01:55:28,0.000,0.0,0.0,0.0
10/09/2022,01:56:28,0.001,0.0,0.0,0.0
10/09/2022,01:57:28,0.001,0.0,0.0,0.0
10/09/2022,01:58:28,0.001,0.0,0.0,0.0
10/09/2022,01:59:27,0.000,0.0,0.0,0.0
10/09/2022,02:00:28,0.000,0.0,0.0,0.0
10/09/2022,02:01:28,0.000,0.0,0.0,0.0
10/09/2022,02:02:19,-0.001,0.0,0.0,0.0
10/09/2022,02:03:29,-0.000,0.0,0.0,0.0
10/09/2022,02:04:28,-0.000,0.0,0.0,0.0
10/09/2022,02:05:28,-0.001,0.0,0.0,0.0
10/09/2022,02:06:36,-0.000,0.0,0.0,0.0
10/09/2022,02:07:27,0.001,0.0,0.0,0.0
10/09/2022,02:08:28,0.000,0.0,0.0,0.0
10/09/2022,02:09:29,-0.000,0.0,0.0,0.0
10/09/2022,02:10:27,0.001,0.0,0.0,0.0
10/09/2022,02:11:28,-0.001,0.0,0.0,0.0
10/09/2022,02:12:28,0.001,0.0,0.0,0.0
10/09/2022,02:13:28,0.000,0.0,0.0,0.0
10/09/2022,02:14:28,0.000,0.0,0.0,0.0
10/09/2022,02:15:28,0.001,0.0,0.0,0.0
10/09/2022,02:16:28,0.000,0.0,0.0,0.0
10/09/2022,02:17:28,0.001,0.0,0.0,0.0
10/09/2022,02:18:28,-0.000,0.0,0.0,0.0
10/09/2022,02:19:28,0.000,0.0,0.0,0.0
10/09/2022,02:20:28,0.001,0.0,0.0,0.0
10/09/2022,02:21:28,-0.000,0.0,0.0,0.0
10/09/2022,02:22:28,0.000,0.0,0.0,0.0
10/09/2022,02:23:28,0.000,0.0,0.0,0.0
10/09/2022,02:24:36,0.000,0.0,0.0,0.0
10/09/2022,02:25:27,0.000,0.0,0.0,0.0
10/09/2022,02:26:27,0.000,0.0,0.0,0.0
10/09/2022,02:27:36,0.001,0.0,0.0,0.0
10/09/2022,02:28:28,0.000,0.0,0.0,0.0
10/09/2022,02:29:28,0.000,0.0,0.0,0.0
10/09/2022,02:30:27,0.000,0.0,0.0,0.0
10/09/2022,02:31:28,0.000,0.0,0.0,0.0
10/09/2022,02:32:28,0.000,0.0,0.0,0.0
10/09/2022,02:33:28,0.000,0.0,0.0,0.0
10/09/2022,02:34:27,0.000,0.0,0.0,0.0
10/09/2022,02:35:28,0.000,0.0,0.0,0.0
10/09/2022,02:36:28,0.002,0.0,0.0,0.0
10/09/2022,02:37:53,-0.000,0.0,0.0,0.0
10/09/2022,02:39:28,0.001,0.0,0.0,0.0
10/09/2022,02:40:27,-0.000,0.0,0.0,0.0
10/09/2022,02:41:27,0.000,0.0,0.0,0.0
10/09/2022,02:42:28,0.001,0.0,0.0,0.0
10/09/2022,02:43:28,-0.000,0.0,0.0,0.0
10/09/2022,02:44:28,0.001,0.0,0.0,0.0
10/09/2022,02:45:28,-0.000,0.0,0.0,0.0
10/09/2022,02:46:28,0.001,0.0,0.0,0.0
10/09/2022,02:47:28,0.000,0.0,0.0,0.0
10/09/2022,02:48:28,-0.000,0.0,0.0,0.0
10/09/2022,02:49:28,0.000,0.0,0.0,0.0
10/09/2022,02:50:28,0.001,0.0,0.0,0.0
10/09/2022,02:51:28,-0.000,0.0,0.0,0.0
10/09/2022,02:52:28,0.000,0.0,0.0,0.0
10/09/2022,02:53:28,-0.000,0.0,0.0,0.0
10/09/2022,02:54:28,0.000,0.0,0.0,0.0
10/09/2022,02:55:27,0.000,0.0,0.0,0.0
10/09/2022,02:56:28,-0.000,0.0,0.0,0.0
10/09/2022,02:57:27,0.000,0.0,0.0,0.0
10/09/2022,02:58:37,0.000,0.0,0.0,0.0
10/09/2022,02:59:27,0.000,0.0,0.0,0.0
10/09/2022,03:00:28,-0.000,0.0,0.0,0.0
10/09/2022,03:01:28,-0.000,0.0,0.0,0.0
10/09/2022,03:02:28,-0.000,0.0,0.0,0.0
10/09/2022,03:03:28,0.000,0.0,0.0,0.0
10/09/2022,03:04:28,0.000,0.0,0.0,0.0
10/09/2022,03:05:28,0.001,0.0,0.0,0.0
10/09/2022,03:06:28,-0.001,0.0,0.0,0.0
10/09/2022,03:07:28,0.000,0.0,0.0,0.0
10/09/2022,03:08:28,0.000,0.0,0.0,0.0
10/09/2022,03:09:30,0.000,0.0,0.0,0.0
10/09/2022,03:10:36,0.001,0.0,0.0,0.0
10/09/2022,03:11:28,0.001,0.0,0.0,0.0
10/09/2022,03:12:28,0.000,0.0,0.0,0.0
10/09/2022,03:13:36,0.001,0.0,0.0,0.0
10/09/2022,03:14:28,0.000,0.0,0.0,0.0
10/09/2022,03:15:28,0.001,0.0,0.0,0.0
10/09/2022,03:16:35,0.000,0.0,0.0,0.0
10/09/2022,03:17:27,0.001,0.0,0.0,0.0
10/09/2022,03:18:28,0.001,0.0,0.0,0.0
10/09/2022,03:19:28,0.000,0.0,0.0,0.0
10/09/2022,03:20:28,0.000,0.0,0.0,0.0
10/09/2022,03:21:28,0.001,0.0,0.0,0.0
10/09/2022,03:22:28,0.001,0.0,0.0,0.0
10/09/2022,03:23:28,-0.000,0.0,0.0,0.0
10/09/2022,03:24:29,-0.001,0.0,0.0,0.0
10/09/2022,03:25:28,0.001,0.0,0.0,0.0
10/09/2022,03:26:28,0.000,0.0,0.0,0.0
10/09/2022,03:27:27,0.000,0.0,0.0,0.0
10/09/2022,03:28:27,0.000,0.0,0.0,0.0
10/09/2022,03:29:28,0.001,0.0,0.0,0.0
10/09/2022,03:30:28,0.001,0.0,0.0,0.0
10/09/2022,03:31:28,0.001,0.0,0.0,0.0
10/09/2022,03:32:28,0.001,0.0,0.0,0.0
10/09/2022,03:33:28,0.001,0.0,0.0,0.0
10/09/2022,03:34:28,0.001,0.0,0.0,0.0
10/09/2022,03:35:37,0.000,0.0,0.0,0.0
10/09/2022,03:36:28,-0.000,0.0,0.0,0.0
10/09/2022,03:37:28,0.000,0.0,0.0,0.0
10/09/2022,03:38:28,0.000,0.0,0.0,0.0
10/09/2022,03:39:28,0.001,0.0,0.0,0.0
10/09/2022,03:40:28,0.001,0.0,0.0,0.0
10/09/2022,03:41:36,0.001,0.0,0.0,0.0
10/09/2022,03:42:28,0.001,0.0,0.0,0.0
10/09/2022,03:43:27,0.001,0.0,0.0,0.0
10/09/2022,03:44:36,0.000,0.0,0.0,0.0
10/09/2022,03:45:28,0.001,0.0,0.0,0.0
10/09/2022,03:46:28,0.001,0.0,0.0,0.0
10/09/2022,03:47:28,0.000,0.0,0.0,0.0
10/09/2022,03:48:28,0.000,0.0,0.0,0.0
10/09/2022,03:49:28,-0.000,0.0,0.0,0.0
10/09/2022,03:50:28,0.000,0.0,0.0,0.0
10/09/2022,03:51:28,-0.001,0.0,0.0,0.0
10/09/2022,03:52:28,-0.001,0.0,0.0,0.0
10/09/2022,03:53:28,0.001,0.0,0.0,0.0
10/09/2022,03:54:28,0.000,0.0,0.0,0.0
10/09/2022,03:55:28,0.000,0.0,0.0,0.0
10/09/2022,03:56:28,0.001,0.0,0.0,0.0
10/09/2022,03:57:28,0.001,0.0,0.0,0.0
10/09/2022,03:58:28,0.001,0.0,0.0,0.0
10/09/2022,03:59:28,0.001,0.0,0.0,0.0
10/09/2022,04:00:28,0.000,0.0,0.0,0.0
10/09/2022,04:01:28,0.000,0.0,0.0,0.0
10/09/2022,04:02:28,0.001,0.0,0.0,0.0
10/09/2022,04:03:28,-0.001,0.0,0.0,0.0
10/09/2022,04:04:28,-0.001,0.0,0.0,0.0
10/09/2022,04:05:28,0.000,0.0,0.0,0.0
10/09/2022,04:06:28,0.001,0.0,0.0,0.0
10/09/2022,04:07:28,0.000,0.0,0.0,0.0
10/09/2022,04:08:28,0.000,0.0,0.0,0.0
10/09/2022,04:09:28,0.000,0.0,0.0,0.0
10/09/2022,04:10:28,-0.000,0.0,0.0,0.0
10/09/2022,04:11:28,0.000,0.0,0.0,0.0
10/09/2022,04:12:28,0.001,0.0,0.0,0.0
10/09/2022,04:13:28,-0.001,0.0,0.0,0.0
10/09/2022,04:14:28,-0.000,0.0,0.0,0.0
10/09/2022,04:15:28,0.000,0.0,0.0,0.0
10/09/2022,04:16:28,0.000,0.0,0.0,0.0
10/09/2022,04:17:28,0.001,0.0,0.0,0.0
10/09/2022,04:18:36,0.001,0.0,0.0,0.0
10/09/2022,04:19:28,-0.000,0.0,0.0,0.0
10/09/2022,04:20:28,-0.001,0.0,0.0,0.0
10/09/2022,04:21:36,0.000,0.0,0.0,0.0
10/09/2022,04:22:28,0.000,0.0,0.0,0.0
10/09/2022,04:23:28,-0.001,0.0,0.0,0.0
10/09/2022,04:24:37,0.000,0.0,0.0,0.0
10/09/2022,04:25:28,0.000,0.0,0.0,0.0
10/09/2022,04:26:29,0.000,0.0,0.0,0.0
10/09/2022,04:27:28,-0.001,0.0,0.0,0.0
10/09/2022,04:28:28,0.000,0.0,0.0,0.0
10/09/2022,04:29:28,0.000,0.0,0.0,0.0
10/09/2022,04:30:28,-0.001,0.0,0.0,0.0
10/09/2022,04:31:28,-0.001,0.0,0.0,0.0
10/09/2022,04:32:28,0.000,0.0,0.0,0.0
10/09/2022,04:33:28,0.000,0.0,0.0,0.0
10/09/2022,04:34:30,0.000,0.0,0.0,0.0
10/09/2022,04:35:28,0.000,0.0,0.0,0.0
10/09/2022,04:36:37,0.000,0.0,0.0,0.0
10/09/2022,04:38:19,0.001,0.0,0.0,0.0
10/09/2022,04:39:20,0.000,0.0,0.0,0.0
10/09/2022,04:40:19,0.001,0.0,0.0,0.0
10/09/2022,04:41:20,0.000,0.0,0.0,0.0
10/09/2022,04:42:19,0.000,0.0,0.0,0.0
10/09/2022,04:43:19,0.000,0.0,0.0,0.0
10/09/2022,04:44:19,-0.000,0.0,0.0,0.0
10/09/2022,04:45:27,0.001,0.0,0.0,0.0
10/09/2022,04:46:20,0.000,0.0,0.0,0.0
10/09/2022,04:47:19,0.000,0.0,0.0,0.0
10/09/2022,04:48:19,-0.000,0.0,0.0,0.0
10/09/2022,04:49:19,0.000,0.0,0.0,0.0
10/09/2022,04:50:19,0.000,0.0,0.0,0.0
10/09/2022,04:51:20,0.000,0.0,0.0,0.0
10/09/2022,04:52:19,0.000,0.0,0.0,0.0
10/09/2022,04:53:19,0.001,0.0,0.0,0.0
10/09/2022,04:54:19,0.000,0.0,0.0,0.0
10/09/2022,04:55:20,0.000,0.0,0.0,0.0
10/09/2022,04:56:19,0.000,0.0,0.0,0.0
10/09/2022,04:57:19,0.001,0.0,0.0,0.0
10/09/2022,04:58:19,0.000,0.0,0.0,0.0
10/09/2022,04:59:20,-0.000,0.0,0.0,0.0
10/09/2022,05:00:20,0.001,0.0,0.0,0.0
10/09/2022,05:01:19,0.000,0.0,0.0,0.0
10/09/2022,05:02:19,0.000,0.0,0.0,0.0
10/09/2022,05:03:20,0.001,0.0,0.0,0.0
10/09/2022,05:04:20,0.000,0.0,0.0,0.0
10/09/2022,05:05:19,-0.000,0.0,0.0,0.0
10/09/2022,05:06:19,0.000,0.0,0.0,0.0
10/09/2022,05:07:19,0.000,0.0,0.0,0.0
10/09/2022,05:08:20,0.001,0.0,0.0,0.0
10/09/2022,05:09:19,0.001,0.0,0.0,0.0
10/09/2022,05:10:20,0.000,0.0,0.0,0.0
10/09/2022,05:11:20,0.001,0.0,0.0,0.0
10/09/2022,05:12:19,0.001,0.0,0.0,0.0
10/09/2022,05:13:20,0.001,0.0,0.0,0.0
10/09/2022,05:14:19,0.001,0.0,0.0,0.0
10/09/2022,05:15:19,0.002,0.0,0.0,0.0
10/09/2022,05:16:20,0.001,0.0,0.0,0.0
10/09/2022,05:17:19,0.000,0.0,0.0,0.0
10/09/2022,05:18:19,0.001,0.0,0.0,0.0
10/09/2022,05:19:20,0.002,0.0,0.0,0.0
10/09/2022,05:20:19,0.001,0.0,0.0,0.0
10/09/2022,05:21:27,0.001,0.0,0.0,0.0
10/09/2022,05:22:19,0.001,0.0,0.0,0.0
10/09/2022,05:23:20,0.002,0.0,0.0,0.0
10/09/2022,05:24:20,0.002,0.0,0.0,0.0
10/09/2022,05:25:19,0.002,0.0,0.0,0.0
10/09/2022,05:26:19,0.001,0.0,0.0,0.0
10/09/2022,05:27:19,0.002,0.0,0.0,0.0
10/09/2022,05:28:19,0.001,0.0,0.0,0.0
10/09/2022,05:29:19,0.003,0.0,0.0,0.0
10/09/2022,05:30:20,0.003,0.0,0.0,0.0
10/09/2022,05:31:20,0.003,0.0,0.0,0.0
10/09/2022,05:32:19,0.003,0.0,0.0,0.0
10/09/2022,05:33:19,0.003,0.0,0.0,0.0
10/09/2022,05:34:19,0.002,0.0,0.0,0.0
10/09/2022,05:35:19,0.003,0.0,0.0,0.0
10/09/2022,05:36:20,0.003,0.0,0.0,0.0
10/09/2022,05:37:19,0.003,0.0,0.0,0.0
10/09/2022,05:38:20,0.003,0.0,0.0,0.0
10/09/2022,05:39:20,0.003,0.0,0.0,0.0
10/09/2022,05:40:19,0.003,0.0,0.0,0.0
10/09/2022,05:41:19,0.003,0.0,0.0,0.0
10/09/2022,05:42:19,0.003,0.0,0.0,0.0
10/09/2022,05:43:20,0.003,0.0,0.0,0.0
10/09/2022,05:44:20,0.004,0.0,0.0,0.0
10/09/2022,05:45:19,0.005,0.0,0.0,0.0
10/09/2022,05:46:19,0.004,0.0,0.0,0.0
10/09/2022,05:47:19,0.004,0.0,0.0,0.0
10/09/2022,05:48:19,0.005,0.0,0.0,0.0
10/09/2022,05:49:20,0.005,0.0,0.0,0.0
10/09/2022,05:50:19,0.005,0.0,0.0,0.0
10/09/2022,05:51:19,0.006,0.0,0.0,0.0
10/09/2022,05:52:19,0.006,0.0,0.0,0.0
10/09/2022,05:53:19,0.006,0.0,0.0,0.0
10/09/2022,05:54:20,0.006,0.0,0.0,0.0
10/09/2022,05:55:19,0.007,0.0,0.0,0.0
10/09/2022,05:56:19,0.007,0.0,0.0,0.0
10/09/2022,05:57:19,0.007,0.0,0.001,0.001
10/09/2022,05:58:19,0.007,0.0,0.001,0.0
10/09/2022,05:59:20,0.006,0.0,0.001,0.0
10/09/2022,06:00:20,0.006,0.0,0.001,0.0
10/09/2022,06:01:19,0.007,0.0,0.001,0.0
10/09/2022,06:02:19,0.008,0.0,0.001,0.0
10/09/2022,06:03:19,0.009,0.0,0.001,0.0
10/09/2022,06:04:19,0.009,0.0,0.001,0.0
10/09/2022,06:05:19,0.008,0.0,0.001,0.0
10/09/2022,06:06:20,0.010,0.0,0.002,0.001
10/09/2022,06:07:20,0.011,0.0,0.002,0.0
10/09/2022,06:08:19,0.009,0.0,0.002,0.0
10/09/2022,06:09:19,0.011,0.0,0.002,0.0
10/09/2022,06:10:20,0.011,0.0,0.002,0.0
10/09/2022,06:11:19,0.011,0.0,0.002,0.0
10/09/2022,06:12:20,0.011,0.0,0.003,0.001
10/09/2022,06:13:19,0.011,0.0,0.003,0.0
10/09/2022,06:14:19,0.011,0.0,0.003,0.0
10/09/2022,06:15:20,0.012,0.0,0.003,0.0
10/09/2022,06:16:19,0.013,0.0,0.003,0.0
10/09/2022,06:17:19,0.014,0.0,0.004,0.001
10/09/2022,06:18:19,0.014,0.0,0.004,0.0
10/09/2022,06:19:19,0.014,0.0,0.004,0.0
10/09/2022,06:20:20,0.016,0.0,0.004,0.0
10/09/2022,06:21:20,0.016,0.0,0.005,0.001
10/09/2022,06:22:19,0.019,0.0,0.005,0.0
10/09/2022,06:23:19,0.020,0.0,0.005,0.0
10/09/2022,06:24:19,0.022,0.0,0.006,0.001
10/09/2022,06:25:19,0.024,0.0,0.006,0.0
10/09/2022,06:26:19,0.026,0.0,0.006,0.0
10/09/2022,06:27:20,0.025,0.0,0.007,0.001
10/09/2022,06:28:20,0.022,0.0,0.007,0.0
10/09/2022,06:29:19,0.022,0.0,0.008,0.001
10/09/2022,06:30:19,0.021,0.0,0.008,0.0
10/09/2022,06:31:19,0.018,0.0,0.008,0.0
10/09/2022,06:32:19,0.019,0.0,0.009,0.001
10/09/2022,06:33:20,0.019,0.0,0.009,0.0
10/09/2022,06:34:20,0.020,0.0,0.009,0.0
10/09/2022,06:35:19,0.020,0.0,0.01,0.001
10/09/2022,06:36:20,0.021,0.0,0.01,0.0
10/09/2022,06:37:20,0.024,0.0,0.01,0.0
10/09/2022,06:38:21,0.025,0.0,0.011,0.001
10/09/2022,06:39:19,0.026,0.0,0.011,0.0
10/09/2022,06:40:20,0.028,0.0,0.012,0.001
10/09/2022,06:41:20,0.031,0.0,0.012,0.0
10/09/2022,06:42:19,0.033,0.0,0.013,0.001
10/09/2022,06:43:20,0.035,0.0,0.013,0.0
10/09/2022,06:44:27,0.036,0.0,0.014,0.001
10/09/2022,06:45:20,0.037,0.0,0.014,0.0
10/09/2022,06:46:19,0.035,0.0,0.015,0.001
10/09/2022,06:47:19,0.033,0.0,0.015,0.0
10/09/2022,06:48:19,0.033,0.0,0.016,0.001
10/09/2022,06:49:19,0.035,0.0,0.017,0.001
10/09/2022,06:50:20,0.037,0.0,0.017,0.0
10/09/2022,06:51:20,0.038,0.0,0.018,0.001
10/09/2022,06:52:20,0.038,0.0,0.018,0.0
10/09/2022,06:53:19,0.038,0.0,0.019,0.001
10/09/2022,06:54:20,0.042,0.0,0.02,0.001
10/09/2022,06:55:19,0.046,0.0,0.02,0.0
10/09/2022,06:56:19,0.049,0.0,0.021,0.001
10/09/2022,06:57:19,0.049,0.0,0.022,0.001
10/09/2022,06:58:19,0.050,0.0,0.023,0.001
10/09/2022,06:59:20,0.048,0.0,0.024,0.001
10/09/2022,07:00:20,0.045,0.0,0.024,0.0
10/09/2022,07:01:20,0.041,0.0,0.025,0.001
10/09/2022,07:02:19,0.036,0.0,0.026,0.001
10/09/2022,07:03:20,0.033,0.0,0.026,0.0
10/09/2022,07:04:19,0.031,0.0,0.027,0.001
10/09/2022,07:05:20,0.031,0.0,0.027,0.0
10/09/2022,07:06:20,0.033,0.0,0.028,0.001
10/09/2022,07:07:19,0.036,0.0,0.029,0.001
10/09/2022,07:08:19,0.041,0.0,0.029,0.0
10/09/2022,07:09:20,0.045,0.0,0.03,0.001
10/09/2022,07:10:20,0.045,0.0,0.031,0.001
10/09/2022,07:11:20,0.046,0.0,0.031,0.0
10/09/2022,07:12:19,0.052,0.0,0.032,0.001
10/09/2022,07:13:19,0.062,0.0,0.033,0.001
10/09/2022,07:14:19,0.074,0.0,0.034,0.001
10/09/2022,07:15:19,0.087,0.0,0.036,0.002
10/09/2022,07:16:19,0.097,0.0,0.037,0.001
10/09/2022,07:17:20,0.103,0.0,0.039,0.002
10/09/2022,07:18:20,0.107,0.0,0.041,0.002
10/09/2022,07:19:19,0.111,0.0,0.042,0.001
10/09/2022,07:20:19,0.114,0.0,0.044,0.002
10/09/2022,07:21:19,0.117,0.0,0.046,0.002
10/09/2022,07:22:19,0.118,0.0,0.048,0.002
10/09/2022,07:23:19,0.118,0.0,0.05,0.002
10/09/2022,07:24:19,0.117,0.0,0.052,0.002
10/09/2022,07:25:20,0.120,0.0,0.054,0.002
10/09/2022,07:26:20,0.122,0.0,0.056,0.002
10/09/2022,07:27:20,0.121,0.0,0.058,0.002
10/09/2022,07:28:19,0.122,0.0,0.06,0.002
10/09/2022,07:29:19,0.122,0.0,0.062,0.002
10/09/2022,07:30:19,0.122,0.0,0.064,0.002
10/09/2022,07:31:19,0.123,0.0,0.066,0.002
10/09/2022,07:32:20,0.125,0.0,0.068,0.002
10/09/2022,07:33:20,0.127,0.0,0.071,0.003
10/09/2022,07:34:19,0.130,0.0,0.073,0.002
10/09/2022,07:35:34,0.132,0.0,0.075,0.002
10/09/2022,07:36:19,0.134,0.0,0.077,0.002
10/09/2022,07:37:20,0.137,0.0,0.079,0.002
10/09/2022,07:38:19,0.137,0.0,0.082,0.003
10/09/2022,07:39:20,0.138,0.0,0.084,0.002
10/09/2022,07:40:19,0.140,0.0,0.086,0.002
10/09/2022,07:41:19,0.143,0.0,0.089,0.003
10/09/2022,07:42:20,0.148,0.0,0.091,0.002
10/09/2022,07:43:20,0.152,0.0,0.094,0.003
10/09/2022,07:44:19,0.154,0.0,0.096,0.002
10/09/2022,07:45:20,0.152,0.0,0.099,0.003
10/09/2022,07:46:20,0.147,0.0,0.101,0.002
10/09/2022,07:47:20,0.139,0.0,0.103,0.002
10/09/2022,07:48:20,0.129,0.0,0.106,0.003
10/09/2022,07:49:19,0.123,0.0,0.108,0.002
10/09/2022,07:50:19,0.121,0.0,0.11,0.002
10/09/2022,07:51:19,0.121,0.0,0.112,0.002
10/09/2022,07:52:20,0.123,0.0,0.114,0.002
10/09/2022,07:53:20,0.133,0.0,0.116,0.002
10/09/2022,07:54:20,0.144,0.0,0.118,0.002
10/09/2022,07:55:19,0.155,0.0,0.121,0.003
10/09/2022,07:56:20,0.169,0.0,0.124,0.003
10/09/2022,07:57:20,0.184,0.0,0.126,0.002
10/09/2022,07:58:20,0.190,0.0,0.13,0.004
10/09/2022,07:59:20,0.190,0.0,0.133,0.003
10/09/2022,08:00:27,0.182,0.0,0.136,0.003
10/09/2022,08:01:19,0.170,0.0,0.139,0.003
10/09/2022,08:02:19,0.159,0.0,0.142,0.003
10/09/2022,08:03:19,0.155,0.0,0.144,0.002
10/09/2022,08:04:19,0.151,0.0,0.147,0.003
10/09/2022,08:05:19,0.143,0.0,0.149,0.002
10/09/2022,08:06:19,0.130,0.0,0.151,0.002
10/09/2022,08:07:19,0.123,0.0,0.154,0.003
10/09/2022,08:08:20,0.123,0.0,0.156,0.002
10/09/2022,08:09:19,0.130,0.0,0.158,0.002
10/09/2022,08:10:20,0.136,0.0,0.16,0.002
10/09/2022,08:11:19,0.137,0.0,0.162,0.002
10/09/2022,08:12:20,0.138,0.0,0.164,0.002
10/09/2022,08:13:20,0.145,0.0,0.167,0.003
10/09/2022,08:14:20,0.159,0.0,0.169,0.002
10/09/2022,08:15:20,0.170,0.0,0.172,0.003
10/09/2022,08:16:19,0.177,0.0,0.175,0.003
10/09/2022,08:17:20,0.188,0.0,0.178,0.003
10/09/2022,08:18:19,0.187,0.0,0.181,0.003
10/09/2022,08:19:20,0.185,0.0,0.184,0.003
10/09/2022,08:20:20,0.187,0.0,0.187,0.003
10/09/2022,08:21:20,0.183,0.0,0.19,0.003
10/09/2022,08:22:20,0.181,0.0,0.193,0.003
10/09/2022,08:23:20,0.181,0.0,0.197,0.004
10/09/2022,08:24:19,0.173,0.0,0.199,0.002
10/09/2022,08:25:19,0.163,0.0,0.202,0.003
10/09/2022,08:26:19,0.150,0.0,0.205,0.003
10/09/2022,08:27:19,0.130,0.0,0.207,0.002
10/09/2022,08:28:20,0.123,0.0,0.209,0.002
10/09/2022,08:29:20,0.125,0.0,0.211,0.002
10/09/2022,08:30:20,0.125,0.0,0.213,0.002
10/09/2022,08:31:21,0.126,0.0,0.216,0.003
10/09/2022,08:32:20,0.129,0.0,0.218,0.002
10/09/2022,08:33:20,0.137,0.0,0.22,0.002
10/09/2022,08:34:20,0.140,0.0,0.222,0.002
10/09/2022,08:35:19,0.128,0.0,0.224,0.002
10/09/2022,08:36:19,0.117,0.0,0.226,0.002
10/09/2022,08:37:19,0.104,0.0,0.228,0.002
10/09/2022,08:38:20,0.103,0.0,0.23,0.002
10/09/2022,08:39:20,0.119,0.0,0.232,0.002
10/09/2022,08:40:20,0.138,0.0,0.234,0.002
10/09/2022,08:41:19,0.143,0.0,0.236,0.002
10/09/2022,08:42:19,0.147,0.0,0.239,0.003
10/09/2022,08:43:20,0.151,0.0,0.241,0.002
10/09/2022,08:44:20,0.150,0.0,0.244,0.003
10/09/2022,08:45:19,0.149,0.0,0.246,0.002
10/09/2022,08:46:20,0.162,0.0,0.249,0.003
10/09/2022,08:47:20,0.190,0.0,0.252,0.003
10/09/2022,08:48:20,0.223,1.0,0.255,0.003
10/09/2022,08:49:20,0.248,1.0,0.259,0.004
10/09/2022,08:50:20,0.267,1.0,0.263,0.004
10/09/2022,08:51:20,0.275,1.0,0.268,0.005
10/09/2022,08:52:20,0.272,1.0,0.273,0.005
10/09/2022,08:53:19,0.275,1.0,0.277,0.004
10/09/2022,08:54:19,0.291,1.0,0.282,0.005
10/09/2022,08:55:19,0.295,1.0,0.287,0.005
10/09/2022,08:56:20,0.297,1.0,0.292,0.005
10/09/2022,08:57:20,0.301,1.0,0.297,0.005
10/09/2022,08:58:20,0.298,1.0,0.302,0.005
10/09/2022,08:59:19,0.287,1.0,0.307,0.005
10/09/2022,09:00:19,0.282,1.0,0.311,0.004
10/09/2022,09:01:20,0.277,1.0,0.316,0.005
10/09/2022,09:02:20,0.270,1.0,0.321,0.005
10/09/2022,09:03:20,0.264,1.0,0.325,0.004
10/09/2022,09:04:20,0.271,1.0,0.33,0.005
10/09/2022,09:05:20,0.288,1.0,0.334,0.004
10/09/2022,09:06:20,0.324,1.0,0.339,0.005
10/09/2022,09:07:20,0.355,1.0,0.345,0.006
10/09/2022,09:08:20,0.374,1.0,0.351,0.006
10/09/2022,09:09:20,0.384,1.0,0.357,0.006
10/09/2022,09:10:20,0.384,1.0,0.364,0.007
10/09/2022,09:11:20,0.370,1.0,0.37,0.006
10/09/2022,09:12:19,0.358,1.0,0.376,0.006
10/09/2022,09:13:20,0.381,1.0,0.382,0.006
10/09/2022,09:14:20,0.396,1.0,0.389,0.007
10/09/2022,09:15:20,0.398,1.0,0.395,0.006
10/09/2022,09:16:20,0.401,1.0,0.402,0.007
10/09/2022,09:17:20,0.405,1.0,0.409,0.007
10/09/2022,09:18:19,0.416,1.0,0.416,0.007
10/09/2022,09:19:20,0.447,1.0,0.423,0.007
10/09/2022,09:20:20,0.467,1.0,0.43,0.007
10/09/2022,09:21:20,0.478,1.0,0.438,0.008
10/09/2022,09:22:19,0.490,1.0,0.446,0.008
10/09/2022,09:23:19,0.493,1.0,0.455,0.009
10/09/2022,09:24:19,0.492,1.0,0.463,0.008
10/09/2022,09:25:20,0.500,1.0,0.471,0.008
10/09/2022,09:26:20,0.508,1.0,0.479,0.008
10/09/2022,09:27:19,0.524,1.0,0.488,0.009
10/09/2022,09:28:20,0.554,1.0,0.497,0.009
10/09/2022,09:29:20,0.568,1.0,0.506,0.009
10/09/2022,09:30:19,0.578,1.0,0.516,0.01
10/09/2022,09:31:19,0.590,1.0,0.526,0.01
10/09/2022,09:32:19,0.600,1.0,0.536,0.01
10/09/2022,09:33:20,0.602,1.0,0.546,0.01
10/09/2022,09:34:20,0.606,1.0,0.556,0.01
10/09/2022,09:35:20,0.614,1.0,0.566,0.01
10/09/2022,09:36:20,0.612,1.0,0.576,0.01
10/09/2022,09:37:20,0.612,1.0,0.586,0.01
10/09/2022,09:38:19,0.728,2.0,0.597,0.011
10/09/2022,09:39:19,0.529,1.0,0.607,0.01
10/09/2022,09:40:20,0.473,1.0,0.616,0.009
10/09/2022,09:41:20,0.448,1.0,0.623,0.007
10/09/2022,09:42:19,0.462,1.0,0.631,0.008
10/09/2022,09:43:19,0.506,1.0,0.639,0.008
10/09/2022,09:44:20,0.551,1.0,0.648,0.009
10/09/2022,09:45:20,0.575,1.0,0.657,0.009
10/09/2022,09:46:21,0.571,1.0,0.667,0.01
10/09/2022,09:47:20,0.540,1.0,0.676,0.009
10/09/2022,09:48:20,0.522,1.0,0.685,0.009
10/09/2022,09:49:19,0.520,1.0,0.693,0.008
10/09/2022,09:50:20,0.495,1.0,0.702,0.009
10/09/2022,09:51:20,0.472,1.0,0.71,0.008
10/09/2022,09:52:20,0.469,1.0,0.718,0.008
10/09/2022,09:53:20,0.494,1.0,0.726,0.008
10/09/2022,09:54:20,0.537,1.0,0.734,0.008
10/09/2022,09:55:20,0.560,1.0,0.744,0.01
10/09/2022,09:56:20,0.590,1.0,0.753,0.009
10/09/2022,09:57:20,0.612,1.0,0.763,0.01
10/09/2022,09:58:20,0.599,1.0,0.773,0.01
10/09/2022,09:59:20,0.579,1.0,0.783,0.01
10/09/2022,10:00:20,0.586,1.0,0.793,0.01
10/09/2022,10:01:20,0.599,1.0,0.803,0.01
10/09/2022,10:02:19,0.597,1.0,0.813,0.01
10/09/2022,10:03:20,0.590,1.0,0.823,0.01
10/09/2022,10:04:20,0.580,1.0,0.832,0.009
10/09/2022,10:05:19,0.555,1.0,0.842,0.01
10/09/2022,10:06:20,0.515,1.0,0.851,0.009
10/09/2022,10:07:20,0.481,1.0,0.859,0.008